timestamp,wind_dir_avg,wind_spd_avg,wind_spd_max_dir,wind_spd_gust,battery_voltage,lat,long
2023-08-28 00:04:01+00:00,186.0,7.17,202.0,9.15,12.49,47.59359,-54.27349
2023-08-28 00:14:00+00:00,182.0,6.53,183.0,7.48,12.41,47.59359,-54.27349
2023-08-28 00:24:00+00:00,180.0,6.58,187.0,7.73,12.41,47.59359,-54.27349
2023-08-28 00:34:00+00:00,173.0,6.34,170.0,6.99,12.41,47.59359,-54.27349
2023-08-28 00:44:00+00:00,174.0,6.69,174.0,7.58,12.41,47.59359,-54.27349
2023-08-28 00:54:00+00:00,174.0,6.89,174.0,7.48,12.41,47.59359,-54.27349
2023-08-28 01:04:00+00:00,181.0,7.82,196.0,9.0,12.41,47.59359,-54.27349
2023-08-28 01:14:00+00:00,176.0,6.71,179.0,7.42,12.41,47.59359,-54.27349
2023-08-28 01:24:00+00:00,175.0,6.87,178.0,7.68,12.41,47.59359,-54.27349
2023-08-28 01:34:00+00:00,176.0,7.3,178.0,8.67,12.41,47.59359,-54.27349
2023-08-28 01:44:00+00:00,169.0,6.25,171.0,6.8,12.41,47.59359,-54.27349
2023-08-28 01:54:00+00:00,164.0,5.25,166.0,5.89,12.41,47.59359,-54.27349
2023-08-28 02:04:00+00:00,170.0,5.31,169.0,6.07,12.41,47.59359,-54.27349
2023-08-28 02:14:01+00:00,168.0,6.55,169.0,7.6,12.41,47.59359,-54.27349
2023-08-28 02:24:01+00:00,179.0,6.13,180.0,6.95,12.41,47.59359,-54.27349
2023-08-28 02:34:01+00:00,171.0,4.61,184.0,4.99,12.41,47.59359,-54.27349
2023-08-28 02:44:01+00:00,165.0,4.46,165.0,5.03,12.41,47.59359,-54.27349
2023-08-28 02:54:01+00:00,169.0,4.51,171.0,4.92,12.41,47.59359,-54.27349
2023-08-28 03:04:01+00:00,177.0,4.75,197.0,5.12,12.41,47.59359,-54.27349
2023-08-28 03:14:01+00:00,186.0,5.41,202.0,6.64,12.41,47.59359,-54.27349
2023-08-28 03:24:01+00:00,182.0,5.38,202.0,6.71,12.41,47.59359,-54.27349
2023-08-28 03:34:01+00:00,181.0,5.88,189.0,6.91,12.41,47.59359,-54.27349
2023-08-28 03:44:01+00:00,183.0,5.14,184.0,5.78,12.41,47.59359,-54.27349
2023-08-28 03:54:01+00:00,187.0,5.07,193.0,6.01,12.41,47.59359,-54.27349
2023-08-28 04:04:01+00:00,187.0,5.41,185.0,6.16,12.41,47.59359,-54.27349
2023-08-28 04:14:01+00:00,181.0,4.87,183.0,5.41,12.41,47.59359,-54.27349
2023-08-28 04:24:01+00:00,186.0,4.56,190.0,4.9,12.41,47.59359,-54.27349
2023-08-28 04:34:01+00:00,187.0,3.84,187.0,4.46,12.41,47.59359,-54.27349
2023-08-28 04:44:01+00:00,177.0,3.97,180.0,4.61,12.41,47.59359,-54.27349
2023-08-28 04:54:01+00:00,181.0,3.46,178.0,3.78,12.41,47.59359,-54.27349
2023-08-28 05:04:01+00:00,176.0,3.07,178.0,3.84,12.41,47.59359,-54.27349
2023-08-28 05:14:00+00:00,162.0,2.51,149.0,3.03,12.33,47.59359,-54.27349
2023-08-28 05:24:00+00:00,171.0,2.72,193.0,3.32,12.33,47.59359,-54.27349
2023-08-28 05:34:00+00:00,171.0,3.65,172.0,4.17,12.33,47.59359,-54.27349
2023-08-28 05:44:00+00:00,167.0,3.25,165.0,3.6,12.33,47.59359,-54.27349
2023-08-28 05:54:00+00:00,171.0,3.39,168.0,3.95,12.33,47.59359,-54.27349
2023-08-28 06:04:00+00:00,179.0,4.9,179.0,5.38,12.33,47.59359,-54.27349
2023-08-28 06:14:01+00:00,181.0,3.93,182.0,4.45,12.33,47.59359,-54.27349
2023-08-28 06:24:01+00:00,182.0,4.96,181.0,5.74,12.33,47.59359,-54.27349
2023-08-28 06:34:01+00:00,177.0,5.33,182.0,6.08,12.33,47.59359,-54.27349
2023-08-28 06:44:01+00:00,174.0,4.91,174.0,6.38,12.33,47.59359,-54.27349
2023-08-28 06:54:01+00:00,172.0,5.37,183.0,6.73,12.33,47.59359,-54.27349
2023-08-28 07:04:01+00:00,174.0,5.51,180.0,6.25,12.33,47.59359,-54.27349
2023-08-28 07:14:01+00:00,180.0,6.33,201.0,7.65,12.33,47.59359,-54.27349
2023-08-28 07:24:01+00:00,180.0,6.62,183.0,7.45,12.33,47.59359,-54.27349
2023-08-28 07:34:01+00:00,175.0,5.24,191.0,6.37,12.33,47.59359,-54.27349
2023-08-28 07:44:01+00:00,171.0,4.92,175.0,5.59,12.33,47.59359,-54.27349
2023-08-28 07:54:01+00:00,175.0,4.29,176.0,4.9,12.33,47.59359,-54.27349
2023-08-28 08:04:01+00:00,178.0,5.64,188.0,6.34,12.33,47.59359,-54.27349
2023-08-28 08:14:00+00:00,179.0,5.45,180.0,6.07,12.25,47.59359,-54.27349
2023-08-28 08:24:00+00:00,178.0,4.93,178.0,5.64,12.25,47.59359,-54.27349
2023-08-28 08:34:00+00:00,185.0,6.04,185.0,6.76,12.25,47.59359,-54.27349
2023-08-28 08:44:00+00:00,185.0,5.86,185.0,6.47,12.25,47.59359,-54.27349
2023-08-28 08:54:00+00:00,199.0,8.09,200.0,9.34,12.25,47.59359,-54.27349
2023-08-28 09:04:00+00:00,201.0,8.63,207.0,9.45,12.25,47.59359,-54.27349
2023-08-28 09:14:01+00:00,219.0,10.44,227.0,12.45,12.25,47.59359,-54.27349
2023-08-28 09:24:01+00:00,216.0,7.85,223.0,10.02,12.25,47.59359,-54.27349
2023-08-28 09:34:01+00:00,216.0,8.36,225.0,10.37,12.25,47.59359,-54.27349
2023-08-28 09:44:01+00:00,218.0,8.35,228.0,10.82,12.25,47.59359,-54.27349
2023-08-28 09:54:01+00:00,212.0,7.47,217.0,8.47,12.25,47.59359,-54.27349
2023-08-28 10:04:01+00:00,213.0,9.0,224.0,11.46,12.25,47.59359,-54.27349
2023-08-28 10:14:00+00:00,210.0,10.61,212.0,11.68,12.33,47.59359,-54.27349
2023-08-28 10:24:00+00:00,210.0,9.17,217.0,10.81,12.33,47.59359,-54.27349
2023-08-28 10:34:00+00:00,220.0,7.98,225.0,9.43,12.33,47.59359,-54.27349
2023-08-28 10:44:00+00:00,219.0,9.24,228.0,12.07,12.33,47.59359,-54.27349
2023-08-28 10:54:00+00:00,221.0,7.75,233.0,8.8,12.33,47.59359,-54.27349
2023-08-28 11:04:00+00:00,218.0,8.15,224.0,9.62,12.33,47.59359,-54.27349
2023-08-28 11:14:01+00:00,214.0,8.67,221.0,9.85,12.81,47.59359,-54.27349
2023-08-28 11:24:01+00:00,214.0,7.84,214.0,8.67,12.81,47.59359,-54.27349
2023-08-28 11:34:01+00:00,219.0,6.67,220.0,7.59,12.81,47.59359,-54.27349
2023-08-28 11:44:01+00:00,216.0,7.07,221.0,8.24,12.81,47.59359,-54.27349
2023-08-28 11:54:01+00:00,218.0,7.72,220.0,9.32,12.81,47.59359,-54.27349
2023-08-28 12:04:01+00:00,222.0,6.33,226.0,7.21,12.81,47.59359,-54.27349
2023-08-28 12:14:00+00:00,222.0,5.64,224.0,6.31,13.44,47.59359,-54.27349
2023-08-28 12:24:00+00:00,223.0,5.34,228.0,6.09,13.44,47.59359,-54.27349
2023-08-28 12:34:00+00:00,229.0,4.2,231.0,4.68,13.44,47.59359,-54.27349
2023-08-28 12:44:00+00:00,228.0,4.15,227.0,4.95,13.44,47.59359,-54.27349
2023-08-28 12:54:00+00:00,218.0,5.02,222.0,5.79,13.44,47.59359,-54.27349
2023-08-28 13:04:00+00:00,215.0,5.89,219.0,6.64,13.44,47.59359,-54.27349
2023-08-28 13:14:00+00:00,219.0,4.99,223.0,5.62,14.24,47.59359,-54.27349
2023-08-28 13:24:00+00:00,215.0,4.86,217.0,5.41,14.24,47.59359,-54.27349
2023-08-28 13:34:00+00:00,217.0,4.23,220.0,4.87,14.24,47.59359,-54.27349
2023-08-28 13:44:00+00:00,226.0,3.94,220.0,4.49,14.24,47.59359,-54.27349
2023-08-28 13:54:00+00:00,221.0,3.92,223.0,4.7,14.24,47.59359,-54.27349
2023-08-28 14:04:00+00:00,218.0,3.13,222.0,3.83,14.24,47.59359,-54.27349
2023-08-28 14:14:00+00:00,214.0,4.69,217.0,5.35,14.16,47.59359,-54.27349
2023-08-28 14:24:00+00:00,206.0,4.37,206.0,5.13,14.16,47.59359,-54.27349
2023-08-28 14:34:00+00:00,206.0,5.82,206.0,6.41,14.16,47.59359,-54.27349
2023-08-28 14:44:00+00:00,202.0,5.89,204.0,6.53,14.16,47.59359,-54.27349
2023-08-28 14:54:00+00:00,196.0,5.89,197.0,6.35,14.16,47.59359,-54.27349
2023-08-28 15:04:00+00:00,189.0,6.1,192.0,6.69,14.16,47.59359,-54.27349
2023-08-28 15:14:00+00:00,196.0,5.97,197.0,6.52,13.84,47.59359,-54.27349
2023-08-28 15:24:00+00:00,202.0,6.43,204.0,6.91,13.84,47.59359,-54.27349
2023-08-28 15:34:00+00:00,207.0,7.42,210.0,8.2,13.84,47.59359,-54.27349
2023-08-28 15:44:00+00:00,204.0,6.6,207.0,7.67,13.84,47.59359,-54.27349
2023-08-28 15:54:00+00:00,243.0,7.49,244.0,8.29,13.84,47.59359,-54.27349
2023-08-28 16:04:00+00:00,250.0,7.87,251.0,8.71,13.84,47.59359,-54.27349
2023-08-28 16:14:01+00:00,270.0,6.9,269.0,7.44,13.68,47.59359,-54.27349
2023-08-28 16:24:01+00:00,259.0,4.7,254.0,5.54,13.68,47.59359,-54.27349
2023-08-28 16:34:01+00:00,267.0,7.02,272.0,7.63,13.68,47.59359,-54.27349
2023-08-28 16:44:01+00:00,259.0,8.31,263.0,9.34,13.68,47.59359,-54.27349
2023-08-28 16:54:01+00:00,253.0,7.6,250.0,8.29,13.68,47.59359,-54.27349
2023-08-28 17:04:01+00:00,255.0,9.23,257.0,10.08,13.68,47.59359,-54.27349
2023-08-28 17:14:00+00:00,263.0,10.37,261.0,12.31,13.92,47.59359,-54.27349
2023-08-28 17:24:00+00:00,262.0,10.05,262.0,11.87,13.92,47.59359,-54.27349
2023-08-28 17:34:00+00:00,256.0,8.77,251.0,9.82,13.92,47.59359,-54.27349
2023-08-28 17:44:00+00:00,269.0,10.01,269.0,11.34,13.92,47.59359,-54.27349
2023-08-28 17:54:00+00:00,258.0,9.24,263.0,10.67,13.92,47.59359,-54.27349
2023-08-28 18:04:00+00:00,260.0,7.72,257.0,9.57,13.92,47.59359,-54.27349
2023-08-28 18:14:00+00:00,253.0,7.35,252.0,7.99,14.32,47.59359,-54.27349
2023-08-28 18:24:00+00:00,258.0,6.58,258.0,7.56,14.32,47.59359,-54.27349
2023-08-28 18:34:00+00:00,257.0,8.03,260.0,8.8,14.32,47.59359,-54.27349
2023-08-28 18:44:00+00:00,271.0,6.63,272.0,7.14,14.32,47.59359,-54.27349
2023-08-28 18:54:00+00:00,260.0,5.61,266.0,6.46,14.32,47.59359,-54.27349
2023-08-28 19:04:00+00:00,274.0,6.3,274.0,7.0,14.32,47.59359,-54.27349
2023-08-28 19:14:00+00:00,269.0,6.92,270.0,7.9,13.53,47.59359,-54.27349
2023-08-28 19:24:00+00:00,257.0,6.98,255.0,7.88,13.53,47.59359,-54.27349
2023-08-28 19:34:00+00:00,251.0,7.37,248.0,8.26,13.53,47.59359,-54.27349
2023-08-28 19:44:00+00:00,256.0,6.84,259.0,7.75,13.53,47.59359,-54.27349
2023-08-28 19:54:00+00:00,255.0,8.9,256.0,9.74,13.53,47.59359,-54.27349
2023-08-28 20:04:00+00:00,253.0,8.38,256.0,9.52,13.53,47.59359,-54.27349
2023-08-28 20:14:01+00:00,255.0,8.96,257.0,10.33,13.53,47.59359,-54.27349
2023-08-28 20:24:01+00:00,262.0,8.12,264.0,9.01,13.53,47.59359,-54.27349
2023-08-28 20:34:01+00:00,259.0,9.72,260.0,10.35,13.53,47.59359,-54.27349
2023-08-28 20:44:01+00:00,252.0,7.74,253.0,8.99,13.53,47.59359,-54.27349
2023-08-28 20:54:01+00:00,241.0,6.04,243.0,7.59,13.53,47.59359,-54.27349
2023-08-28 21:04:01+00:00,257.0,6.97,260.0,7.8,13.53,47.59359,-54.27349
2023-08-28 21:14:01+00:00,266.0,8.71,267.0,10.04,13.29,47.59359,-54.27349
2023-08-28 21:24:01+00:00,252.0,5.97,256.0,6.8,13.29,47.59359,-54.27349
2023-08-28 21:34:01+00:00,266.0,9.62,262.0,11.24,13.29,47.59359,-54.27349
2023-08-28 21:44:01+00:00,267.0,8.85,266.0,10.34,13.29,47.59359,-54.27349
2023-08-28 21:54:01+00:00,257.0,9.4,258.0,10.84,13.29,47.59359,-54.27349
2023-08-28 22:04:01+00:00,259.0,7.87,248.0,8.76,13.29,47.59359,-54.27349
2023-08-28 22:14:01+00:00,263.0,8.07,256.0,9.33,12.97,47.59359,-54.27349
2023-08-28 22:24:01+00:00,257.0,7.56,256.0,8.53,12.97,47.59359,-54.27349
2023-08-28 22:34:01+00:00,264.0,9.28,269.0,10.36,12.97,47.59359,-54.27349
2023-08-28 22:44:01+00:00,264.0,8.68,266.0,10.08,12.97,47.59359,-54.27349
2023-08-28 22:54:01+00:00,264.0,7.32,262.0,8.15,12.97,47.59359,-54.27349
2023-08-28 23:04:01+00:00,264.0,7.79,264.0,8.64,12.97,47.59359,-54.27349
2023-08-28 23:14:00+00:00,259.0,7.18,262.0,7.95,12.49,47.59359,-54.27349
2023-08-28 23:24:00+00:00,253.0,7.29,256.0,8.16,12.49,47.59359,-54.27349
2023-08-28 23:34:00+00:00,252.0,7.68,247.0,8.97,12.49,47.59359,-54.27349
2023-08-28 23:44:00+00:00,245.0,6.79,243.0,8.39,12.49,47.59359,-54.27349
2023-08-28 23:54:00+00:00,251.0,7.4,247.0,8.78,12.49,47.59359,-54.27349
